Simultaneous Nadir Overpasses (SNOs) Predictions

Prediction of SNOs between METOP-B and TERRA Satellite Orbit:

Table of predicted SNOs for the next 14.0 days since TLE Epoch: 12/1/2024
Index Date (METOP-B) Time (METOP-B) Lat,Lon (METOP-B) SZA (METOP-B ) Date (TERRA) Time (TERRA) Lat,Lon (TERRA) SZA (TERRA ) Distance(km) Time Diff (sec)
1 12/02/2024 04:08:02 -78.33, -56.25 79.60 12/02/2024 04:09:16 -78.24, -55.87 79.68 13.50 74
2 12/02/2024 04:58:09 79.55, 119.12 101.91 12/02/2024 04:58:05 79.55, 119.07 101.91 1.00 4
3 12/04/2024 18:37:34 -79.37, 92.86 78.00 12/04/2024 18:38:16 -79.37, 92.81 78.00 1.11 42
4 12/04/2024 19:28:08 79.57, -98.21 102.28 12/04/2024 19:27:31 79.58, -98.15 102.28 1.23 37
5 12/07/2024 09:07:33 -79.42,-124.31 77.64 12/07/2024 09:07:41 -79.42,-124.21 77.63 2.23 8
6 12/
